Volver al catálogo

ARIANE 1 DEB

LostHEO
NORAD 26533·DEBRIS·🇫🇷 France

Lanzado Dec 24, 1979 desde Guiana Space Centre

Loading…

Próximos Pases (próximas 24 horas)

TLE

ObsoletoSource: Space-Track

Época: Dec 9, 2021, 22:56 UTC

1 26533U 79104P   21343.95594557 -.00000064  00000-0  00000+0 0  9992
2 26533  16.0602  80.7079 5793704 140.2452   2.5379  3.66991107292124

Sigue ARIANE 1 DEB en tiempo real con AllMySat

Download on the App Store